Date String (YYYY-MM-DD hh:mm:ss) UTC,Instrument flags,Ambient pressure (hPa),Sample flow (lpm),Bypass flow (lpm),Sample temperature (°C),Ambient temperature (°C),ASC tube jacket temperature (°C),LED temperature (°C),Box temperature (°C),Sample RH (%),Span deviation,Mass concentration (μg/m³),Mass concentration (μg/m³),Mass concentration (μg/m³)
DateTimeUTC,F1_M11,P_M11,Q1_M11,Q2_M11,T1_M11,T2_M11,T3_M11,T4_M11,T5_M11,U1_M11,ZSPAN_M11,X2_M11,X0_M11,X1_M11
2022-10-09 01:00:00,,0833.1,4.99,0.00,30.2,29.1,00.0,38.8,32.1,16.9,-000.9,0011.42,0019.29,0010.58
2022-10-09 01:01:00,,0833.1,5.01,0.00,30.2,29.1,00.0,38.9,32.1,16.9,-001.0,0011.47,0019.26,0010.61
2022-10-09 01:02:00,,0833.1,5.00,0.00,30.2,29.1,00.0,38.9,32.1,16.9,-001.0,0011.49,0018.58,0010.63
2022-10-09 01:03:00,,0833.1,5.00,0.00,30.2,29.1,00.0,38.9,32.1,16.9,-001.0,0011.56,0018.32,0010.67
2022-10-09 01:04:00,,0833.1,5.00,0.00,30.2,29.1,00.0,38.9,32.1,16.9,-001.1,0011.65,0018.56,0010.71
2022-10-09 01:05:00,,0833.1,5.01,0.00,30.2,29.1,00.0,38.9,32.1,16.8,-000.9,0011.72,0018.67,0010.74
2022-10-09 01:06:00,,0833.1,5.00,0.00,30.2,27.8,00.0,38.9,32.0,16.8,-001.2,0011.75,0017.66,0010.79
2022-10-09 01:07:00,,0833.2,5.00,0.00,30.2,26.6,00.0,38.9,31.9,16.9,-001.1,0011.79,0017.61,0010.84
2022-10-09 01:08:00,,0833.1,4.99,0.00,30.1,26.5,00.0,38.8,31.7,17.0,-001.1,0011.85,0018.10,0010.88
2022-10-09 01:09:00,,0833.1,5.00,0.00,30.0,26.8,00.0,38.8,31.7,17.1,-000.8,0011.87,0018.06,0010.91
2022-10-09 01:10:00,,0833.1,5.01,0.00,29.9,27.2,00.0,38.8,31.6,17.2,-000.6,0011.88,0018.04,0010.91
2022-10-09 01:11:00,,0833.2,5.01,0.00,29.9,27.5,00.0,38.7,31.6,17.3,-000.6,0011.86,0018.16,0010.89
2022-10-09 01:12:00,,0833.2,4.99,0.00,29.9,27.7,00.0,38.7,31.6,17.3,-000.3,0011.85,0017.90,0010.88
2022-10-09 01:13:00,,0833.2,4.99,0.00,29.9,28.0,00.0,38.7,31.7,17.3,-000.0,0011.79,0018.01,0010.85
2022-10-09 01:14:00,,0833.2,5.00,0.00,29.9,28.1,00.0,38.7,31.7,17.3,-000.3,0011.71,0018.04,0010.80
2022-10-09 01:15:00,,0833.2,5.00,0.00,29.9,28.3,00.0,38.7,31.7,17.4,-000.5,0011.63,0018.36,0010.75
2022-10-09 01:16:00,,0833.3,5.00,0.00,29.9,28.3,00.0,38.7,31.8,17.4,-000.6,0011.56,0018.60,0010.69
2022-10-09 01:17:00,,0833.3,5.00,0.00,29.9,28.4,00.0,38.7,31.7,17.5,-000.3,0011.51,0018.74,0010.61
2022-10-09 01:18:00,,0833.2,4.99,0.00,29.9,28.5,00.0,38.7,31.7,17.8,-000.2,0011.37,0018.56,0010.46
2022-10-09 01:19:00,,0833.2,5.00,0.00,29.9,28.5,00.0,38.7,31.8,17.8,-000.2,0011.17,0018.81,0010.28
2022-10-09 01:20:00,,0833.2,5.00,0.00,29.9,28.6,00.0,38.7,31.8,17.8,-000.4,0011.00,0019.17,0010.10
2022-10-09 01:21:00,,0833.2,4.99,0.00,29.9,28.6,00.0,38.7,31.8,17.9,-000.6,0010.80,0019.07,0009.92
2022-10-09 01:22:00,,0833.2,5.01,0.00,29.9,28.6,00.0,38.7,31.8,18.1,-000.4,0010.61,0018.47,0009.74
2022-10-09 01:23:00,,0833.2,4.99,0.00,29.9,28.7,00.0,38.7,31.8,18.1,-000.5,0010.38,0018.49,0009.54
2022-10-09 01:24:00,,0833.2,5.02,0.00,29.9,28.7,00.0,38.7,31.8,17.9,-000.9,0010.18,0018.02,0009.37
2022-10-09 01:25:00,,0833.1,5.00,0.00,30.0,28.7,00.0,38.7,31.8,17.7,-000.7,0009.99,0017.64,0009.20
2022-10-09 01:26:00,,0833.1,5.00,0.00,30.0,28.7,00.0,38.7,31.9,17.7,-000.6,0009.86,0017.61,0009.08
2022-10-09 01:27:00,,0833.1,5.00,0.00,30.0,28.7,00.0,38.7,31.9,17.7,-000.8,0009.66,0016.59,0008.93
2022-10-09 01:28:00,,0833.2,4.99,0.00,30.0,28.7,00.0,38.7,31.9,17.8,-000.9,0009.52,0016.29,0008.81
2022-10-09 01:29:00,,0833.2,5.00,0.00,30.0,28.7,00.0,38.7,31.9,17.7,-000.9,0009.46,0016.18,0008.77
2022-10-09 01:30:00,,0833.2,5.01,0.00,30.0,28.7,00.0,38.7,31.9,17.6,-000.8,0009.52,0016.00,0008.81
2022-10-09 01:31:00,,0833.2,4.99,0.00,30.0,28.8,00.0,38.8,31.9,17.4,-000.7,0009.62,0015.67,0008.89
2022-10-09 01:32:00,,0833.2,5.00,0.00,30.0,28.8,00.0,38.8,31.9,17.3,-000.8,0009.77,0016.06,0009.03
2022-10-09 01:33:00,,0833.3,5.00,0.00,30.1,28.8,00.0,38.8,31.9,17.3,-000.8,0009.90,0017.50,0009.16
2022-10-09 01:34:00,,0833.3,4.99,0.00,30.1,28.8,00.0,38.8,32.0,17.3,-000.8,0010.04,0017.02,0009.30
2022-10-09 01:35:00,,0833.3,5.01,0.00,30.1,28.8,00.0,38.8,32.0,17.2,-000.7,0010.23,0017.70,0009.46
2022-10-09 01:36:00,,0833.3,4.99,0.00,30.1,28.8,00.0,38.8,32.0,17.2,-000.7,0010.40,0018.20,0009.62
2022-10-09 01:37:00,,0833.3,5.00,0.00,30.1,28.9,00.0,38.8,32.0,17.1,-000.6,0010.58,0018.36,0009.77
2022-10-09 01:38:00,,0833.3,5.01,0.00,30.1,28.9,00.0,38.8,32.0,17.1,-000.5,0010.78,0018.77,0009.94
2022-10-09 01:39:00,,0833.2,4.98,0.00,30.1,28.8,00.0,38.8,32.0,17.1,-000.2,0010.98,0019.18,0010.13
2022-10-09 01:40:00,,0833.2,5.00,0.00,30.1,28.9,00.0,38.9,32.0,17.2,-000.1,0011.11,0019.43,0010.26
2022-10-09 01:41:00,,0833.1,5.01,0.00,30.1,28.9,00.0,38.9,32.0,17.4,-000.2,0011.14,0019.37,0010.30
2022-10-09 01:42:00,,0833.2,5.00,0.00,30.2,28.9,00.0,38.9,32.0,17.3,-000.1,0011.18,0019.16,0010.34
2022-10-09 01:43:00,,0833.1,5.00,0.00,30.2,28.9,00.0,38.9,32.0,17.3,0000.1,0011.19,0018.85,0010.35
2022-10-09 01:44:00,,0833.2,5.00,0.00,30.2,28.9,00.0,38.9,32.0,17.3,0000.1,0011.17,0017.53,0010.33
2022-10-09 01:45:00,,0833.2,5.01,0.00,30.2,28.9,00.0,38.9,32.0,17.2,0000.2,0011.16,0017.82,0010.34
2022-10-09 01:46:00,,0833.3,4.98,0.00,30.2,28.9,00.0,38.9,32.0,17.2,0000.4,0011.17,0017.69,0010.35
2022-10-09 01:47:00,,0833.3,5.00,0.00,30.2,28.9,00.0,38.9,32.0,17.2,0000.5,0011.21,0017.42,0010.36
2022-10-09 01:48:00,,0833.3,4.99,0.00,30.2,28.9,00.0,38.9,32.0,17.1,0000.8,0011.25,0017.12,0010.41
2022-10-09 01:49:00,,0833.3,5.00,0.00,30.2,28.9,00.0,38.9,32.1,17.2,0000.7,0011.28,0016.94,0010.42
2022-10-09 01:50:00,,0833.3,4.99,0.00,30.2,28.9,00.0,39.0,32.1,17.2,0000.2,0011.25,0016.75,0010.37
2022-10-09 01:51:00,,0833.3,5.00,0.00,30.2,28.9,00.0,39.0,32.1,17.2,0000.1,0011.25,0017.39,0010.35
2022-10-09 01:52:00,,0833.3,5.01,0.00,30.2,28.9,00.0,39.0,32.1,17.3,-000.1,0011.27,0017.53,0010.34
2022-10-09 01:53:00,,0833.3,5.00,0.00,30.2,28.9,00.0,39.0,32.1,17.4,-000.3,0011.17,0017.31,0010.25
2022-10-09 01:54:00,,0833.3,4.99,0.00,30.2,28.9,00.0,39.0,32.1,17.5,-000.3,0011.10,0017.74,0010.18
2022-10-09 01:55:00,,0833.3,5.00,0.00,30.2,28.9,00.0,39.0,32.0,17.5,-000.4,0011.07,0017.74,0010.13
2022-10-09 01:56:00,,0833.3,5.00,0.00,30.2,28.9,00.0,39.0,32.1,17.5,-000.5,0011.02,0017.52,0010.09
2022-10-09 01:57:00,,0833.3,5.01,0.00,30.2,28.9,00.0,39.0,32.1,17.5,-000.6,0010.93,0017.45,0010.01
2022-10-09 01:58:00,,0833.3,4.99,0.00,30.2,28.9,00.0,39.0,32.1,17.6,-000.5,0010.82,0017.53,0009.90
2022-10-09 01:59:00,,0833.3,5.00,0.00,30.2,28.9,00.0,39.0,32.1,17.6,-000.8,0010.66,0017.49,0009.74
